Pocatello, ID

9:57 PM MST on December 07, 2016 (GMT -0700)
Pocatello Regional

Weather History for KPIH - April, 2012

Change the Weather History Date:

Tuesday, April 17, 2012

  Actual Average Record
Temperature  
Mean Temperature 52 °F 46 °F  
Max Temperature 62 °F 59 °F 83 °F (1994)
Min Temperature 41 °F 33 °F 18 °F (2013)
Degree Days  
Heating Degree Days 13 19  
Month to date heating degree days 350 356  
Since 1 July heating degree days 6025 6468  
Cooling Degree Days 0 0  
Month to date cooling degree days 0 0  
Year to date cooling degree days 0 0  
Growing Degree Days 1 (Base 50)    
Moisture  
Dew Point 36 °F    
Average Humidity 60    
Maximum Humidity 92    
Minimum Humidity 27    
Precipitation  
Precipitation 0.08 in 0.04 in 0.48 in (2006)
Month to date precipitation 0.53 0.61  
Year to date precipitation 3.95 3.83  
Snow  
Snow 0.00 in - - ()
Month to date snowfall 0.8  
Since 1 July snowfall 15.8  
Snow Depth 0.00 in    
Sea Level Pressure  
Sea Level Pressure 30.07 in    
Wind  
Wind Speed 13 mph (SW)    
Max Wind Speed 29 mph    
Max Gust Speed 36 mph    
Visibility 10 miles    
Events Rain    
T = Trace of Precipitation, MM = Missing Value Source: NWS Daily Summary

Daily Weather History Graph

Daily Weather History Graph

Search for Another Location

Airport or City:

Trip Planner

Search our weather history database for the weather conditions in past years. The results will help you decide how hot, cold, wet, or windy it might be!

Date:

Astronomy

Apr. 17, 2012 Rise Set
Actual Time 6:44 AM MDT 8:15 PM MDT
Civil Twilight 6:14 AM MDT 8:45 PM MDT
Nautical Twilight 5:38 AM MDT 9:21 PM MDT
Astronomical Twilight 5:00 AM MDT 9:59 PM MDT
Moon 4:48 AM MDT (4/17) 5:08 PM MDT (4/17)
Length of Visible Light 14h 30m
Length of Day
13h 31m
Waning Crescent, 11% of the Moon is Illuminated
Apr 17
Waning Crescent
Apr 21
New
Apr 29
First Quarter
May 5
Full
May 12
Last Quarter

Hourly Weather History & Observations

Time (MDT) Temp. Windchill Dew Point Humidity Pressure Visibility Wind Dir Wind Speed Gust Speed Precip Events Conditions
12:53 AM 45.0 °F - 39.0 °F 80% 30.06 in 10.0 mi Calm Calm - N/A   Overcast
1:53 AM 46.0 °F 38.3 °F 39.9 °F 79% 30.08 in 10.0 mi SW 20.7 mph 27.6 mph 0.01 in Rain Light Rain
2:53 AM 44.1 °F 40.1 °F 41.0 °F 89% 30.08 in 10.0 mi SSW 6.9 mph - 0.06 in   Overcast
3:06 AM 44.6 °F 38.4 °F 42.8 °F 93% 30.13 in 10.0 mi West 12.7 mph 19.6 mph N/A   Overcast
3:37 AM 44.6 °F 40.7 °F 42.8 °F 93% 30.12 in 10.0 mi SSW 6.9 mph - 0.00 in   Overcast
3:53 AM 44.1 °F 39.5 °F 42.1 °F 93% 30.07 in 10.0 mi South 8.1 mph - 0.00 in   Overcast
5:53 AM 44.1 °F 38.6 °F 39.9 °F 85% 30.09 in 10.0 mi SW 10.4 mph - N/A   Clear
6:53 AM 41.0 °F 36.4 °F 37.9 °F 89% 30.12 in 10.0 mi West 6.9 mph - N/A   Scattered Clouds
7:53 AM 42.1 °F 37.7 °F 39.0 °F 89% 30.14 in 10.0 mi WSW 6.9 mph - N/A   Scattered Clouds
8:53 AM 45.0 °F 39.3 °F 41.0 °F 86% 30.16 in 10.0 mi SW 11.5 mph - N/A   Mostly Cloudy
9:53 AM 48.9 °F - 41.0 °F 74% 30.16 in 10.0 mi SW 20.7 mph 24.2 mph N/A   Scattered Clouds
10:53 AM 52.0 °F - 39.0 °F 61% 30.17 in 10.0 mi WSW 13.8 mph - N/A   Mostly Cloudy
11:53 AM 54.0 °F - 36.0 °F 51% 30.16 in 10.0 mi WSW 15.0 mph 26.5 mph N/A   Mostly Cloudy
12:53 PM 57.0 °F - 36.0 °F 45% 30.13 in 10.0 mi WSW 18.4 mph 27.6 mph N/A   Mostly Cloudy
1:53 PM 57.9 °F - 34.0 °F 41% 30.12 in 10.0 mi WSW 19.6 mph 28.8 mph N/A   Scattered Clouds
2:53 PM 60.1 °F - 35.1 °F 39% 30.09 in 10.0 mi WSW 18.4 mph 26.5 mph N/A   Partly Cloudy
3:53 PM 60.1 °F - 30.0 °F 32% 30.06 in 10.0 mi WSW 18.4 mph 25.3 mph N/A   Partly Cloudy
4:53 PM 61.0 °F - 28.9 °F 30% 30.04 in 10.0 mi West 12.7 mph 24.2 mph N/A   Partly Cloudy
5:53 PM 61.0 °F - 27.0 °F 27% 30.01 in 10.0 mi WSW 10.4 mph - N/A   Partly Cloudy
6:53 PM 57.9 °F - 28.9 °F 33% 30.01 in 10.0 mi West 8.1 mph - N/A   Partly Cloudy
7:53 PM 55.9 °F - 30.9 °F 39% 30.00 in 10.0 mi Calm Calm - N/A   Mostly Cloudy
8:53 PM 54.0 °F - 39.9 °F 59% 30.00 in 10.0 mi South 10.4 mph - 0.00 in Rain Light Rain
9:53 PM 54.0 °F - 39.0 °F 57% 29.97 in 10.0 mi South 17.3 mph - 0.01 in Rain Light Rain
10:53 PM 53.1 °F - 35.1 °F 50% 29.94 in 10.0 mi South 15.0 mph 21.9 mph 0.00 in Rain Light Rain
11:53 PM 55.0 °F - 34.0 °F 45% 29.91 in 10.0 mi South 17.3 mph 29.9 mph 0.00 in Rain Light Rain